Weather History for Lille, France

Change the Weather History Date:

Tuesday, September 25, 2012

  Actual Average Record
Temperature  
Mean Temperature 56 °F -  
Max Temperature 62 °F 59 °F 75 °F (1998)
Min Temperature 50 °F 47 °F 42 °F (2003)
Degree Days  
Heating Degree Days 9    
Growing Degree Days 6 (Base 50)    
Moisture  
Dew Point 49 °F    
Average Humidity 78    
Maximum Humidity 94    
Minimum Humidity 54    
Precipitation  
Precipitation 0.20 in - - ()
Sea Level Pressure  
Sea Level Pressure 29.36 in    
Wind  
Wind Speed 15 mph ()    
Max Wind Speed 24 mph    
Max Gust Speed -    
Visibility 6.1 miles    
Events Rain , Thunderstorm    
Averages and records for this station are not official NWS values.
T = Trace of Precipitation, MM = Missing Value Source: Averaged Metar Reports

Daily Weather History Graph

Daily Weather History Graph

Search for Another Location

Airport:

Trip Planner

Search our weather history database for the weather conditions in past years. The results will help you decide how hot, cold, wet, or windy it might be!

Date:

Astronomy

Sep. 25, 2012 Rise Set
Actual Time 7:38 AM CEST 7:38 PM CEST
Civil Twilight 7:06 AM CEST 8:10 PM CEST
Nautical Twilight 6:27 AM CEST 8:49 PM CEST
Astronomical Twilight 5:48 AM CEST 9:28 PM CEST
Moon 5:16 PM CEST (9/25) 2:16 AM CEST (9/25)
Length of Visible Light 13h 04m
Length of Day
11h 59m
Waxing Gibbous, 77% of the Moon is Illuminated
Sep 25
Waxing Gibbous
Sep 30
Full
Oct 8
Last Quarter
Oct 15
New
Oct 22
First Quarter

Hourly Weather History & Observations

Time (CEST) Temp. Dew Point Humidity Pressure Visibility Wind Dir Wind Speed Gust Speed Precip Events Conditions
12:00 AM 57.2 °F 51.8 °F 82% 29.36 in 6.2 mi SSW 17.3 mph - N/A   Mostly Cloudy
12:30 AM 57.2 °F 51.8 °F 82% 29.33 in 6.2 mi SSW 16.1 mph - N/A   Mostly Cloudy
1:00 AM 57.2 °F 51.8 °F 82% 29.33 in 6.2 mi SSW 17.3 mph - N/A   Mostly Cloudy
1:30 AM 57.2 °F 51.8 °F 82% 29.33 in 6.2 mi SSW 19.6 mph - N/A Rain Light Rain Showers
2:00 AM 56 °F 51 °F 78% 29.35 in 31 mi SSW 24.2 mph - - Rain Light Rain Showers
2:00 AM 55.4 °F 51.8 °F 88% 29.33 in 6.2 mi SSW 24.2 mph - N/A Rain Light Rain Showers
2:30 AM 55.4 °F 50.0 °F 82% 29.36 in 6.2 mi SW 16.1 mph - N/A   Overcast
3:00 AM 55.4 °F 50.0 °F 82% 29.36 in 6.2 mi SW 13.8 mph - N/A   Mostly Cloudy
3:30 AM 53.6 °F 48.2 °F 82% 29.36 in 6.2 mi SW 11.5 mph - N/A   Scattered Clouds
4:00 AM 51.8 °F 48.2 °F 88% 29.36 in 6.2 mi SW 12.7 mph - N/A   Partly Cloudy
4:30 AM 53.6 °F 48.2 °F 82% 29.36 in 6.2 mi SW 12.7 mph - N/A   Mostly Cloudy
5:00 AM 51.8 °F 48.2 °F 88% 29.36 in - SSW 12.7 mph - N/A   Clear
6:00 AM 51.8 °F 48.2 °F 88% 29.36 in - SSW 15.0 mph - N/A   Clear
6:30 AM 51.8 °F 48.2 °F 88% 29.33 in - SW 13.8 mph - N/A   Clear
7:00 AM 51.8 °F 48.2 °F 88% 29.36 in - SSW 15.0 mph - N/A   Clear
7:30 AM 51.8 °F 48.2 °F 88% 29.36 in 6.2 mi SSW 11.5 mph - N/A   Scattered Clouds
8:00 AM 52 °F 48 °F 80% 29.38 in 31 mi South 13.8 mph - -   Partly Cloudy
8:00 AM 51.8 °F 48.2 °F 88% 29.36 in 6.2 mi South 13.8 mph - N/A   Scattered Clouds
8:30 AM 51.8 °F 48.2 °F 88% 29.36 in 6.2 mi South 13.8 mph - N/A   Scattered Clouds
9:00 AM 51.8 °F 48.2 °F 88% 29.36 in 6.2 mi South 13.8 mph - N/A   Scattered Clouds
9:30 AM 53.6 °F 50.0 °F 88% 29.36 in 6.2 mi South 13.8 mph - N/A   Scattered Clouds
10:00 AM 55.4 °F 50.0 °F 82% 29.36 in 6.2 mi South 15.0 mph - N/A   Scattered Clouds
10:30 AM 57.2 °F 50.0 °F 77% 29.36 in 6.2 mi SSW 17.3 mph - N/A   Scattered Clouds
11:00 AM 57.2 °F 50.0 °F 77% 29.36 in 6.2 mi SSW 19.6 mph - N/A   Scattered Clouds
11:30 AM 59.0 °F 50.0 °F 72% 29.36 in 6.2 mi SSW 19.6 mph - N/A   Scattered Clouds
11:52 AM 59.0 °F 48.2 °F 67% 29.36 in 6.2 mi SSW 19.6 mph - N/A   Mostly Cloudy
12:30 PM 59.0 °F 48.2 °F 67% 29.36 in 6.2 mi SSW 20.7 mph - N/A   Mostly Cloudy
1:00 PM 59.0 °F 48.2 °F 67% 29.36 in 6.2 mi SSW 18.4 mph - N/A   Mostly Cloudy
1:30 PM 60.8 °F 50.0 °F 68% 29.39 in 6.2 mi SW 20.7 mph - N/A   Mostly Cloudy
2:00 PM 62 °F 49 °F 54% 29.38 in 31 mi SSW 21.9 mph - -   Mostly Cloudy
2:00 PM 62.6 °F 50.0 °F 63% 29.36 in 6.2 mi SSW 20.7 mph - N/A   Scattered Clouds
2:30 PM 62.6 °F 50.0 °F 63% 29.36 in 6.2 mi South 19.6 mph - N/A   Scattered Clouds
2:54 PM 60.8 °F 48.2 °F 63% 29.36 in 6.2 mi SSW 19.6 mph - N/A Rain Light Rain Showers
3:05 PM 59.0 °F 50.0 °F 72% 29.39 in 6.2 mi SSW 19.6 mph - N/A Rain Light Rain Showers
3:30 PM 59.0 °F 51.8 °F 77% 29.39 in 6.2 mi SSW 15.0 mph - N/A   Scattered Clouds
4:00 PM 60.8 °F 50.0 °F 68% 29.36 in 6.2 mi SSW 18.4 mph - N/A   Scattered Clouds
4:30 PM 62.6 °F 48.2 °F 59% 29.39 in 6.2 mi SSW 23.0 mph - N/A   Scattered Clouds
5:00 PM 60.8 °F 48.2 °F 63% 29.39 in 6.2 mi SSW 18.4 mph - N/A   Scattered Clouds
5:30 PM 60.8 °F 48.2 °F 63% 29.36 in 6.2 mi SSW 17.3 mph - N/A   Mostly Cloudy
6:00 PM 59.0 °F 50.0 °F 72% 29.36 in 6.2 mi South 15.0 mph - N/A   Mostly Cloudy
7:00 PM 55.4 °F 50.0 °F 82% 29.39 in 6.2 mi South 8.1 mph - N/A Rain Light Rain
7:30 PM 55.4 °F 50.0 °F 82% 29.36 in 6.2 mi SSE 8.1 mph - N/A Thunderstorm Thunderstorm
8:00 PM 51 °F 47 °F 81% 29.40 in 5 mi WSW 8.1 mph - - Rain , Thunderstorm Thunderstorms and Rain
8:00 PM 51.8 °F 46.4 °F 82% 29.39 in 5.0 mi WSW 9.2 mph - N/A Rain , Thunderstorm Light Thunderstorms and Rain
9:00 PM 50.0 °F 46.4 °F 87% 29.36 in 6.2 mi SE 2.3 mph - N/A   Scattered Clouds
9:30 PM 50.0 °F 48.2 °F 94% 29.39 in - SSE 5.8 mph - N/A   Clear
10:00 PM 51.8 °F 50.0 °F 94% 29.36 in - SSE 6.9 mph - N/A   Clear
10:30 PM 55.4 °F 51.8 °F 88% 29.36 in - South 10.4 mph - N/A   Clear